Location: Chin
(49.7667°N, 112.4500°W)
Time: 11:56:33
(UTC+00:00)

N. Korean satellite - Pass Details

Date: 09 December 2021
Orbit: 447 x 490 km, 97.3° (Epoch: 27 January)

Event Time Altitude Azimuth Distance (km) Brightness Sun altitude
Rises 11:49:52 0° 29° (NNE) 2,463 10.5 -32.0°
Reaches altitude 10° 11:52:34 10° 53° (NE) 1,583 9.8 -31.6°
Maximum altitude 11:54:38 15° 91° (E) 1,291 9.5 -31.2°
Drops below altitude 10° 11:56:43 10° 129° (SE) 1,577 9.7 -30.9°
Sets 11:59:23 0° 153° (SSE) 2,446 10.5 -30.5°
